This is the latest recevied weather packets stored in our database for station/object N9BLE. If no packets are shown the sender has not sent any weather packets the latest 10 day(s).
| Time | Temp. | Humidity | Pressure | Rain* | Wind** | Luminosity | Snow |
|---|---|---|---|---|---|---|---|
| 1777645692 | 7.78° C | 77% | 1020.8 hPa | 0 mm | - | 100 W/m² | - |
| 1777645388 | 7.22° C | 74% | 1020.7 hPa | 0 mm | - | 99 W/m² | - |
| 1777645084 | 7.78° C | 80% | 1020.4 hPa | 0 mm | - | 99 W/m² | - |
| 1777644781 | 6.67° C | 81% | 1020.5 hPa | 0 mm | - | 166 W/m² | - |
| 1777644478 | 6.11° C | 81% | 1020.6 hPa | 0 mm | - | 138 W/m² | - |
| 1777644175 | 6.11° C | 83% | 1020.5 hPa | 0 mm | - | 90 W/m² | - |
| 1777643871 | 6.67° C | 83% | 1020.6 hPa | 0 mm | - | 58 W/m² | - |
| 1777643569 | 6.67° C | 84% | 1020.2 hPa | 0 mm | - | 73 W/m² | - |
| 1777643265 | 6.11° C | 84% | 1020.4 hPa | 0 mm | - | 133 W/m² | - |
| 1777642962 | 6.67° C | 83% | 1020.3 hPa | 0 mm | - | 91 W/m² | - |
| 1777642658 | 6.11° C | 83% | 1020.3 hPa | 0 mm | - | 85 W/m² | - |
| 1777642355 | 6.11° C | 85% | 1020.3 hPa | 0 mm | - | 77 W/m² | - |
| 1777642052 | 5.56° C | 85% | 1020 hPa | 0 mm | - | 111 W/m² | - |
| 1777641748 | 6.11° C | 85% | 1020.4 hPa | 0 mm | - | 70 W/m² | - |
| 1777641443 | 6.11° C | 85% | 1020.2 hPa | 0 mm | - | 116 W/m² | - |
| 1777641139 | 6.67° C | 86% | 1020 hPa | 0 mm | - | 77 W/m² | - |
| 1777640835 | 6.67° C | 84% | 1020.2 hPa | 0 mm | - | 136 W/m² | - |
| 1777640532 | 6.67° C | 85% | 1020.2 hPa | 0 mm | - | 151 W/m² | - |
| 1777640229 | 6.67° C | 84% | 1020.3 hPa | 0 mm | - | 200 W/m² | - |
| 1777639925 | 6.11° C | 88% | 1020.3 hPa | 0 mm | - | 183 W/m² | - |
| 1777639622 | 5.56° C | 91% | 1020.3 hPa | 0 mm | - | 178 W/m² | - |
| 1777639319 | 5° C | 93% | 1020.4 hPa | 0 mm | - | 64 W/m² | - |
| 1777639015 | 5° C | 94% | 1020.2 hPa | 0 mm | - | 84 W/m² | - |
| 1777638712 | 4.44° C | 95% | 1020.4 hPa | 0 mm | - | 50 W/m² | - |
| 1777638408 | 4.44° C | 95% | 1020.4 hPa | 0 mm | - | 29 W/m² | - |
* Rain latest hour (hover to see other rain measurements)
** Current wind speed in m/s (hover to see current wind gust speed)